Weather History for Bangkok (Don Mueang), Thailand

Change the Weather History Date:

Saturday, January 19, 2013

  Actual Average Record
Temperature  
Mean Temperature 78 °F -  
Max Temperature 85 °F 90 °F 96 °F (1997)
Min Temperature 71 °F 73 °F 62 °F (2014)
Cooling Degree Days 13    
Growing Degree Days 28 (Base 50)    
Moisture  
Dew Point 59 °F    
Average Humidity 53    
Maximum Humidity 69    
Minimum Humidity 33    
Precipitation  
Precipitation 0.00 in 0.02 in - ()
Sea Level Pressure  
Sea Level Pressure 29.95 in    
Wind  
Wind Speed 6 mph ()    
Max Wind Speed 12 mph    
Max Gust Speed -    
Visibility 5.0 miles    
Events      
Averages and records for this station are not official NWS values.
T = Trace of Precipitation, MM = Missing Value Source: Averaged Metar Reports

Daily Weather History Graph

Daily Weather History Graph

Search for Another Location

Airport:

Trip Planner

Search our weather history database for the weather conditions in past years. The results will help you decide how hot, cold, wet, or windy it might be!

Date:

Astronomy

Jan. 19, 2013 Rise Set
Actual Time 6:45 AM ICT 6:11 PM ICT
Civil Twilight 6:22 AM ICT 6:33 PM ICT
Nautical Twilight 5:56 AM ICT 6:59 PM ICT
Astronomical Twilight 5:30 AM ICT 7:25 PM ICT
Moon 12:04 PM ICT (1/19) 12:08 AM ICT (1/19)
Length of Visible Light 12h 10m
Length of Day
11h 25m
First Quarter, 52% of the Moon is Illuminated
Jan 19
First Quarter
Jan 27
Full
Feb 3
Last Quarter
Feb 10
New
Feb 18
First Quarter

Hourly Weather History & Observations

Time (ICT) Temp. Heat Index Dew Point Humidity Pressure Visibility Wind Dir Wind Speed Gust Speed Precip Events Conditions
12:00 AM 77.0 °F - 60.8 °F 57% 29.98 in 5.6 mi East 4.6 mph - N/A   Unknown
12:30 AM 77.0 °F - 62.6 °F 61% 29.98 in 5.6 mi NE 6.9 mph - N/A   Unknown
1:00 AM 77 °F - 61 °F 48% 29.98 in 6 mi NE 5.8 mph - -   Haze
1:00 AM 77.0 °F - 60.8 °F 57% 29.98 in 5.6 mi NE 5.8 mph - N/A   Unknown
1:30 AM 77.0 °F - 60.8 °F 57% 29.95 in 5.6 mi North 6.9 mph - N/A   Unknown
2:00 AM 75.2 °F - 60.8 °F 61% 29.95 in 5.6 mi NNE 4.6 mph - N/A   Unknown
2:30 AM 75.2 °F - 59.0 °F 57% 29.95 in 5.6 mi NNE 5.8 mph - N/A   Unknown
3:00 AM 75.2 °F - 60.8 °F 61% 29.92 in 5.6 mi NE 6.9 mph - N/A   Unknown
3:30 AM 73.4 °F - 60.8 °F 65% 29.92 in 5.6 mi NE 6.9 mph - N/A   Unknown
4:00 AM 73.4 °F - 60.8 °F 65% 29.92 in 5.6 mi NNE 8.1 mph - N/A   Unknown
4:30 AM 71.6 °F - 60.8 °F 69% 29.92 in 5.0 mi NNE 10.4 mph - N/A   Scattered Clouds
5:00 AM 71.6 °F - 60.8 °F 69% 29.95 in 5.0 mi NNE 4.6 mph - N/A   Scattered Clouds
5:30 AM 71.6 °F - 60.8 °F 69% 29.95 in 5.0 mi NNE 5.8 mph - N/A   Scattered Clouds
6:00 AM 71.6 °F - 60.8 °F 69% 29.95 in 5.0 mi NNE 4.6 mph - N/A   Scattered Clouds
6:30 AM 71.6 °F - 59.0 °F 64% 29.98 in 5.0 mi East 9.2 mph - N/A   Scattered Clouds
7:00 AM 71 °F - 60 °F 61% 30.01 in 4 mi East 2.3 mph - -   Mist
7:00 AM 71.6 °F - 60.8 °F 69% 29.98 in 4.3 mi East 2.3 mph - N/A   Unknown
7:30 AM 71.6 °F - 60.8 °F 69% 30.01 in 4.3 mi NE 5.8 mph - N/A   Unknown
8:00 AM 71.6 °F - 59.0 °F 64% 30.01 in 4.3 mi East 4.6 mph - N/A   Unknown
8:30 AM 73.4 °F - 59.0 °F 61% 30.04 in 5.0 mi East 4.6 mph - N/A   Unknown
9:00 AM 75.2 °F - 59.0 °F 57% 30.04 in 5.0 mi SSE 8.1 mph - N/A   Unknown
9:30 AM 75.2 °F - 59.0 °F 57% 30.04 in 5.6 mi East 6.9 mph - N/A   Unknown
10:00 AM 77.0 °F - 59.0 °F 54% 30.04 in - ESE 6.9 mph - N/A   Clear
10:30 AM 78.8 °F - 59.0 °F 51% 30.04 in - East 8.1 mph - N/A   Clear
11:00 AM 80.6 °F 81.1 °F 59.0 °F 48% 30.01 in - East 10.4 mph - N/A   Clear
11:30 AM 80.6 °F 81.1 °F 59.0 °F 48% 30.01 in - ESE 11.5 mph - N/A   Clear
12:00 PM 80.6 °F 81.1 °F 59.0 °F 48% 29.98 in - East 8.1 mph - N/A   Clear
12:30 PM 82.4 °F 82.5 °F 59.0 °F 45% 29.95 in - East 11.5 mph - N/A   Clear
1:00 PM 83 °F - 59 °F 34% 29.97 in 6 mi ENE 6.9 mph - -   Clear
1:00 PM 82.4 °F 82.5 °F 59.0 °F 45% 29.95 in - ENE 6.9 mph - N/A   Clear
1:30 PM 84.2 °F 83.8 °F 59.0 °F 42% 29.92 in - ESE 6.9 mph - N/A   Clear
2:00 PM 86.0 °F 85.4 °F 59.0 °F 40% 29.92 in - SSE 8.1 mph - N/A   Clear
2:30 PM 84.2 °F 83.8 °F 59.0 °F 42% 29.89 in - ESE 5.8 mph - N/A   Clear
3:00 PM 86.0 °F 85.4 °F 59.0 °F 40% 29.89 in - East 9.2 mph - N/A   Clear
3:30 PM 84.2 °F 83.0 °F 55.4 °F 37% 29.86 in - NNE 5.8 mph - N/A   Clear
4:00 PM 86.0 °F 84.9 °F 57.2 °F 37% 29.86 in - ENE 6.9 mph - N/A   Clear
4:30 PM 84.2 °F 83.5 °F 57.2 °F 40% 29.86 in - ENE 8.1 mph - N/A   Clear
5:00 PM 84.2 °F 83.5 °F 57.2 °F 40% 29.86 in - ENE 6.9 mph - N/A   Clear
5:30 PM 84.2 °F 83.5 °F 57.2 °F 40% 29.86 in - ENE 4.6 mph - N/A   Clear
6:00 PM 82.4 °F 82.5 °F 59.0 °F 45% 29.89 in - ENE 4.6 mph - N/A   Clear
6:30 PM 80.6 °F 81.1 °F 59.0 °F 48% 29.89 in - ENE 6.9 mph - N/A   Clear
7:00 PM 82 °F - 57 °F 33% 29.93 in 0 mi NNW 4.6 mph - -   Clear
7:00 PM 82.4 °F 82.0 °F 57.2 °F 42% 29.89 in - NNW 4.6 mph - N/A   Clear
7:30 PM 80.6 °F 80.8 °F 57.2 °F 45% 29.92 in - North 3.5 mph - N/A   Clear
8:00 PM 78.8 °F - 55.4 °F 44% 29.92 in - Calm Calm - N/A   Clear
8:30 PM 78.8 °F - 59.0 °F 51% 29.95 in - Calm Calm - N/A   Clear
9:00 PM 78.8 °F - 59.0 °F 51% 29.95 in - NNW 4.6 mph - N/A   Clear
9:30 PM 77.0 °F - 59.0 °F 54% 29.95 in - NNW 4.6 mph - N/A   Clear
10:00 PM 77.0 °F - 62.6 °F 61% 29.95 in - NNW 3.5 mph - N/A   Clear
10:30 PM 77.0 °F - 62.6 °F 61% 29.95 in - NNW 4.6 mph - N/A   Clear
11:00 PM 77.0 °F - 62.6 °F 61% 29.95 in 5.6 mi NNW 2.3 mph - N/A   Unknown
11:30 PM 77.0 °F - 62.6 °F 61% 29.95 in 5.6 mi North 2.3 mph - N/A   Unknown